HG8GL Weather Reports


time (UTC)temp
C
wind
direction
speed
KPH
gust
KPH
rain 1hr
cm
rain 24hr
cm
rain mn
cm
humidity
%
barometer
mb
20260507210009 16 225 0.0 0.0 0.08 0.89 0.89 95 1015.0
20260507205508 16 202 0.0 0.0 0.08 0.89 0.89 95 1015.1
20260507205011 16 202 0.0 0.0 0.08 0.89 0.89 95 1016.0
20260507204507 16 202 0.0 0.0 0.10 0.89 0.89 95 1016.0
20260507204008 16 202 0.0 0.0 0.10 0.89 0.89 95 1015.8
20260507203512 16 202 0.0 0.0 0.10 0.89 0.89 95 1015.0
20260507203010 16 202 0.0 0.0 0.13 0.89 0.89 95 1015.0
20260507202510 16 202 0.0 0.0 0.13 0.89 0.89 95 1015.1
20260507202010 16 202 0.0 0.0 0.15 0.86 0.86 95 1016.0
20260507201509 16 202 0.0 0.0 0.15 0.86 0.86 95 1016.0
20260507201008 16 202 0.0 0.0 0.13 0.86 0.86 95 1016.0
20260507200010 16 202 0.0 0.0 0.15 0.81 0.81 94 1016.0
20260507195510 16 202 0.0 0.0 0.15 0.81 0.81 94 1016.0
20260507195009 16 202 0.0 0.0 0.13 0.79 0.79 94 1016.0
20260507194509 16 202 0.0 0.0 0.13 0.79 0.79 94 1016.0
20260507194010 16 202 0.0 0.0 0.13 0.79 0.79 94 1016.0
20260507193509 16 202 0.0 0.0 0.10 0.76 0.76 94 1016.0
20260507193008 16 202 0.0 0.0 0.08 0.74 0.74 94 1016.0
20260507192508 16 202 0.0 0.0 0.08 0.74 0.74 94 1015.9
20260507192011 16 202 0.0 0.0 0.05 0.74 0.74 94 1015.0
20260507191509 16 202 0.0 0.0 0.05 0.71 0.71 94 1015.0
20260507191012 16 225 0.0 0.0 0.05 0.71 0.71 94 1015.0
20260507190011 16 202 0.0 0.0 0.00 0.66 0.66 94 1015.0
20260507185510 16 180 0.0 0.0 0.00 0.66 0.66 93 1015.0
20260507185010 16 180 0.0 0.0 0.00 0.66 0.66 93 1015.0
20260507184809 16 158 0.0 0.0 0.00 0.66 0.66 93 1015.0
20260507184511 16 158 0.0 0.0 0.00 0.66 0.66 93 1015.0
20260507184008 16 158 0.0 0.0 0.00 0.66 0.66 93 1014.9
20260507183511 16 158 0.0 0.0 0.00 0.66 0.66 93 1014.0
20260507183011 16 158 0.0 0.0 0.00 0.66 0.66 93 1014.0
20260507182511 16 158 0.0 0.0 0.00 0.66 0.66 93 1014.0
20260507182010 16 158 0.0 0.0 0.00 0.66 0.66 93 1014.0
20260507181509 16 158 0.0 0.0 0.00 0.66 0.66 93 1014.0
20260507175009 16 158 0.0 0.0 0.00 0.66 0.66 93 1014.0
20260507174510 16 151 0.0 0.0 0.00 0.66 0.66 93 1014.0
20260507173512 16 151 0.0 0.0 0.00 0.66 0.66 93 1014.0
20260507173011 16 156 0.0 0.0 0.00 0.66 0.66 93 1014.0
20260507172510 17 158 0.0 0.0 0.00 0.66 0.66 92 1014.0
20260507172010 17 158 0.0 0.0 0.00 0.66 0.66 92 1014.0
20260507171511 17 158 0.0 0.0 0.00 0.66 0.66 92 1014.0
20260507171010 17 158 0.0 0.0 0.00 0.66 0.66 92 1014.1
20260507165511 17 158 0.0 0.0 0.00 0.66 0.66 92 1014.9
20260507165009 17 158 0.0 0.0 0.00 0.66 0.66 92 1014.0
20260507164511 17 158 0.0 0.0 0.00 0.66 0.66 92 1014.0
20260507164009 17 158 0.0 0.0 0.00 0.66 0.66 92 1013.9
20260507163513 17 158 0.0 0.0 0.00 0.66 0.66 92 1013.0
20260507163011 17 158 0.0 0.0 0.00 0.66 0.66 92 1013.0
20260507162510 17 248 0.0 0.0 0.00 0.66 0.66 92 1013.1
20260507161510 17 248 0.0 0.0 0.00 0.66 0.66 92 1014.0
20260507160009 17 248 0.0 0.0 0.00 0.66 0.66 92 1014.0
20260507155008 17 248 0.0 0.0 0.00 0.66 0.66 93 1014.0
20260507154010 17 226 0.0 0.0 0.00 0.66 0.66 93 1014.0
20260507153510 17 224 0.0 0.0 0.00 0.66 0.66 93 1014.0
20260507153011 17 233 0.0 0.0 0.00 0.66 0.66 93 1014.0
20260507152509 17 201 0.0 0.0 0.00 0.66 0.66 93 1014.0
20260507152010 17 202 0.0 0.0 0.00 0.66 0.66 93 1014.0
20260507151508 17 161 0.0 0.0 0.00 0.66 0.66 93 1014.0
20260507151010 17 173 0.0 0.0 0.00 0.66 0.66 93 1014.2
20260507150008 17 158 0.0 0.0 0.00 0.66 0.66 93 1015.0
20260507145508 17 158 0.0 0.0 0.00 0.66 0.66 93 1015.0
20260507145010 17 159 0.0 0.0 0.00 0.66 0.66 93 1014.0
20260507144011 17 153 0.0 0.0 0.00 0.66 0.66 93 1014.1
20260507143510 17 161 0.0 0.0 0.00 0.66 0.66 93 1015.0
20260507143008 17 142 0.0 0.0 0.00 0.66 0.66 93 1015.0
20260507142009 17 137 0.0 0.0 0.08 0.66 0.66 93 1015.0
20260507141508 17 158 0.0 0.0 0.08 0.66 0.66 93 1015.0
20260507141010 17 147 0.0 0.0 0.08 0.66 0.66 92 1015.0
20260507140008 17 158 0.0 0.0 0.08 0.66 0.66 92 1015.0
20260507135508 17 151 0.0 0.0 0.08 0.66 0.66 91 1014.9
20260507135010 17 158 0.0 0.0 0.08 0.66 0.66 91 1014.0
20260507134508 17 158 0.0 0.0 0.08 0.66 0.66 91 1014.0
20260507134012 17 173 0.0 0.0 0.08 0.66 0.66 91 1014.0
20260507133511 17 162 0.0 0.0 0.08 0.66 0.66 91 1014.0
20260507133008 17 157 0.0 0.0 0.08 0.66 0.66 90 1014.0
20260507132509 18 129 0.0 0.0 0.08 0.64 0.64 89 1014.0
20260507131512 18 151 0.0 0.0 0.00 0.58 0.58 88 1014.0
20260507131008 18 158 0.0 0.0 0.00 0.58 0.58 88 1014.1
20260507130008 17 158 0.0 0.0 0.00 0.58 0.58 88 1015.0
20260507125011 17 202 0.0 0.0 0.00 0.58 0.58 88 1014.0
20260507124508 17 225 0.0 0.0 0.00 0.58 0.58 88 1014.0
20260507124009 17 163 0.0 0.0 0.05 0.58 0.58 88 1014.0
20260507123509 17 158 0.0 0.0 0.08 0.58 0.58 87 1014.0
20260507123009 17 147 0.0 0.0 0.08 0.58 0.58 87 1014.0
20260507122508 17 158 0.0 0.0 0.10 0.58 0.58 87 1014.0
20260507122009 17 158 0.0 0.0 0.13 0.58 0.58 86 1014.0
20260507121508 17 158 0.0 0.0 0.20 0.58 0.58 86 1014.0
20260507120010 17 188 0.0 0.0 0.20 0.58 0.58 86 1015.0
20260507115509 17 204 0.0 0.0 0.20 0.58 0.58 86 1014.9
20260507115009 17 183 0.0 0.0 0.20 0.56 0.56 86 1014.0
20260507114509 17 274 0.0 0.0 0.20 0.56 0.56 85 1014.0
20260507114010 17 257 0.0 0.0 0.15 0.51 0.51 84 1014.0
20260507112507 17 192 0.0 0.0 0.38 0.48 0.48 83 1014.0
20260507112010 17 162 0.0 0.0 0.36 0.46 0.46 83 1014.0
20260507111507 17 198 0.0 0.0 0.28 0.36 0.36 82 1014.0
20260507110010 17 266 0.0 0.0 0.36 0.36 0.36 81 1014.0
20260507105008 17 213 0.0 0.0 0.36 0.36 0.36 78 1013.0
20260507104509 18 275 0.0 0.0 0.36 0.36 0.36 76 1013.0
20260507104012 18 296 0.0 0.0 0.36 0.36 0.36 76 1013.1
20260507103517 19 300 0.0 0.0 0.33 0.33 0.33 77 1014.0
20260507103011 19 248 0.0 0.0 0.13 0.13 0.13 75 1014.0
20260507102508 20 338 0.0 0.0 0.10 0.10 0.10 71 1014.1
20260507102009 20 338 0.0 0.0 0.10 0.10 0.10 70 1015.0
20260507100008 23 176 0.0 0.0 0.00 0.00 0.00 55 1015.0
20260507095510 23 152 0.0 0.0 0.00 0.00 0.00 58 1014.8
20260507095009 22 158 0.0 0.0 0.00 0.00 0.00 59 1014.0
20260507094009 22 147 0.0 0.0 0.00 0.00 0.00 59 1014.0
20260507093010 22 158 0.0 0.0 0.00 0.00 0.00 62 1014.0
20260507092508 22 178 0.0 0.0 0.00 0.00 0.00 63 1014.0
20260507092009 22 162 0.0 0.0 0.00 0.00 0.00 63 1014.0
20260507091508 21 158 0.0 0.0 0.00 0.00 0.00 65 1014.0
20260507091013 21 176 0.0 0.0 0.00 0.00 0.00 65 1014.0
20260507090013 20 172 0.0 0.0 0.00 0.00 0.00 67 1014.0
20260507085511 20 206 0.0 0.0 0.00 0.00 0.00 67 1014.1
20260507085008 20 210 0.0 0.0 0.00 0.00 0.00 69 1015.0
20260507084009 19 161 0.0 0.0 0.00 0.00 0.00 73 1014.9
20260507083510 19 204 0.0 0.0 0.00 0.00 0.00 73 1014.0
20260507083010 19 199 0.0 0.0 0.00 0.00 0.00 73 1014.0
20260507082010 18 206 0.0 0.0 0.00 0.00 0.00 73 1015.0
20260507081508 18 171 0.0 0.0 0.00 0.00 0.00 73 1015.0
20260507081009 18 177 0.0 0.0 0.00 0.00 0.00 73 1014.8
20260507080008 18 182 0.0 0.0 0.00 0.00 0.00 72 1014.0
20260507075012 19 179 0.0 0.0 0.00 0.00 0.00 73 1014.0
20260507074511 19 224 0.0 0.0 0.00 0.00 0.00 73 1014.0
20260507074010 19 199 0.0 0.0 0.00 0.00 0.00 76 1014.0
20260507073512 19 202 0.0 0.0 0.00 0.00 0.00 76 1014.0
20260507073010 18 183 0.0 0.0 0.00 0.00 0.00 77 1014.0
20260507072509 18 190 0.0 0.0 0.00 0.00 0.00 78 1014.0
20260507071510 18 166 0.0 0.0 0.00 0.00 0.00 82 1014.0
20260507071008 18 171 0.0 0.0 0.00 0.00 0.00 83 1014.0
20260507070011 18 182 0.0 0.0 0.00 0.00 0.00 86 1014.0
20260507065008 17 178 0.0 0.0 0.00 0.00 0.00 88 1014.0
20260507064509 17 161 0.0 0.0 0.00 0.00 0.00 88 1014.0
20260507064010 17 163 0.0 0.0 0.00 0.00 0.00 88 1014.0
20260507063511 17 178 0.0 0.0 0.00 0.00 0.00 89 1014.0
20260507063009 16 180 0.0 0.0 0.00 0.00 0.00 89 1014.0
20260507062510 16 161 0.0 0.0 0.00 0.00 0.00 89 1014.0
20260507062009 16 183 0.0 0.0 0.00 0.00 0.00 89 1014.0
20260507061510 16 180 0.0 0.0 0.00 0.00 0.00 89 1014.0
20260507061011 16 158 0.0 0.0 0.00 0.00 0.00 89 1014.0
20260507060010 16 180 0.0 0.0 0.00 0.00 0.00 88 1014.0
20260507055509 16 158 0.0 0.0 0.00 0.00 0.00 88 1013.9
20260507055008 16 158 0.0 0.0 0.00 0.00 0.00 88 1013.0
20260507054509 16 161 0.0 0.0 0.00 0.00 0.00 88 1013.0
20260507054009 16 154 0.0 0.0 0.00 0.00 0.00 88 1013.0
20260507053510 16 159 0.0 0.0 0.00 0.00 0.00 87 1013.0
20260507053010 16 167 0.0 0.0 0.00 0.00 0.00 87 1013.0
20260507052507 16 183 0.0 0.0 0.00 0.00 0.00 86 1013.0
20260507051508 16 172 0.0 0.0 0.00 0.00 0.00 86 1013.0
20260507051009 16 158 0.0 0.0 0.00 0.00 0.00 86 1013.0
20260507045508 16 158 0.0 0.0 0.00 0.00 0.00 86 1013.0
20260507045010 16 157 0.0 0.0 0.00 0.00 0.00 86 1013.0
20260507044508 16 158 0.0 0.0 0.00 0.00 0.00 86 1013.0
20260507044009 16 153 0.0 0.0 0.00 0.00 0.00 85 1013.0
20260507043508 16 158 0.0 0.0 0.00 0.00 0.00 85 1013.0
20260507043010 16 157 0.0 0.0 0.00 0.00 0.00 85 1013.0
20260507042508 16 151 0.0 0.0 0.00 0.00 0.00 85 1013.0
20260507042008 16 150 0.0 0.0 0.00 0.00 0.00 85 1013.0
20260507041508 16 150 0.0 0.0 0.00 0.00 0.00 85 1013.0
20260507041008 16 155 0.0 0.0 0.00 0.00 0.00 84 1012.9
20260507035507 16 158 0.0 0.0 0.00 0.00 0.00 83 1012.0
20260507035007 16 158 0.0 0.0 0.00 0.00 0.00 83 1012.0
20260507034507 16 155 0.0 0.0 0.00 0.00 0.00 83 1012.0
20260507033508 16 158 0.0 0.0 0.00 0.00 0.00 83 1012.0
20260507032507 16 158 0.0 0.0 0.00 0.00 0.00 82 1012.0
20260507032010 16 202 0.0 0.0 0.00 0.00 0.00 82 1012.0
20260507031510 16 202 0.0 0.0 0.00 0.00 0.00 82 1012.0
20260507031009 16 218 0.0 0.0 0.00 0.00 0.00 82 1012.0
20260507030008 16 202 0.0 0.0 0.00 0.00 0.00 82 1012.0
20260507025508 16 205 0.0 0.0 0.00 0.00 0.00 82 1012.0
20260507025008 16 248 0.0 0.0 0.00 0.00 0.00 83 1012.0
20260507024509 16 241 0.0 0.0 0.00 0.00 0.00 83 1012.0
20260507023008 16 158 0.0 0.0 0.00 0.00 0.00 83 1012.0
20260507022509 16 181 0.0 0.0 0.00 0.00 0.00 83 1012.0
20260507022008 16 222 0.0 0.0 0.00 0.00 0.00 83 1012.0
20260507021509 16 222 0.0 0.0 0.00 0.00 0.00 83 1012.0
20260507021010 16 161 0.0 0.0 0.00 0.00 0.00 83 1012.0
20260507020009 16 202 0.0 0.0 0.00 0.00 0.00 83 1012.0
20260507015508 16 202 0.0 0.0 0.00 0.00 0.00 83 1012.0
20260507014009 16 237 0.0 0.0 0.00 0.00 0.00 83 1012.0
20260507013010 17 252 0.0 0.0 0.00 0.00 0.00 82 1012.0
20260507012508 17 248 0.0 0.0 0.00 0.00 0.00 82 1012.0
20260507012009 17 266 0.0 0.0 0.00 0.00 0.00 81 1012.0
20260507011508 17 254 0.0 0.0 0.00 0.00 0.00 80 1012.0
20260507005509 17 292 0.0 0.0 0.00 0.00 0.00 80 1011.0
20260507005010 17 288 0.0 0.0 0.00 0.00 0.00 80 1011.0
20260507004509 17 272 0.0 0.0 0.00 0.00 0.00 80 1011.0
20260507004009 17 274 0.0 0.0 0.00 0.00 0.00 79 1011.1
20260507003512 17 304 0.0 0.0 0.00 0.00 0.00 78 1012.0
20260507003010 17 299 0.0 0.0 0.00 0.00 0.00 75 1012.0
20260507002512 17 311 0.0 0.0 0.00 0.00 0.00 75 1012.0
20260507002008 17 288 0.0 0.0 0.00 0.00 0.00 75 1012.0
20260507001509 17 291 0.0 0.0 0.00 0.00 0.00 74 1012.0
20260507001010 18 274 0.0 0.0 0.00 0.00 0.00 73 1011.9
20260507000010 18 284 0.0 0.0 0.00 0.00 0.00 72 1011.0
20260506235508 18 296 0.0 0.0 0.00 0.00 0.00 71 1011.1
20260506235010 18 284 0.0 0.0 0.00 0.00 0.00 71 1012.0
20260506234507 18 281 0.0 0.0 0.00 0.00 0.00 71 1012.0
20260506234009 18 259 0.0 0.0 0.00 0.00 0.00 71 1012.0
20260506233009 18 272 0.0 0.0 0.00 0.00 0.00 71 1012.0
20260506232510 18 273 0.0 0.0 0.00 0.00 0.00 71 1012.0
20260506232007 18 281 0.0 0.0 0.00 0.00 0.00 71 1012.0
20260506231508 18 269 0.0 0.0 0.00 0.00 0.00 70 1012.0
20260506231008 18 252 0.0 0.0 0.00 0.00 0.00 70 1012.0
20260506230009 18 259 0.0 0.0 0.00 0.00 0.00 69 1012.0
20260506225510 18 266 0.0 0.0 0.00 0.00 0.00 69 1012.0
20260506225010 18 254 0.0 0.0 0.00 0.00 0.00 68 1012.0
20260506224509 18 271 0.0 0.0 0.00 0.00 0.00 68 1012.0
20260506224009 18 263 0.0 0.0 0.00 0.00 0.00 67 1012.0
20260506223509 18 259 0.0 0.0 0.00 0.00 0.00 67 1012.0
20260506222513 18 270 0.0 0.0 0.00 0.00 0.00 65 1012.0
20260506222009 18 250 0.0 0.0 0.00 0.00 0.00 63 1012.0
20260506221507 18 271 0.0 0.0 0.00 0.00 0.00 63 1012.0
20260506221010 18 249 0.0 0.0 0.00 0.00 0.00 64 1012.0
20260506220010 18 288 0.0 0.0 0.00 0.00 0.00 63 1012.0
20260506215507 18 262 0.0 0.0 0.00 0.00 0.00 62 1011.8
20260506214010 18 268 0.0 0.0 0.00 0.00 0.00 60 1011.0
20260506213510 18 281 0.0 0.0 0.00 0.00 0.00 59 1011.0
20260506213009 18 281 0.0 0.0 0.00 0.00 0.00 59 1011.0
20260506212507 18 277 0.0 0.0 0.00 0.00 0.00 58 1011.0
20260506212010 19 277 0.0 0.0 0.00 0.00 0.00 57 1011.0
20260506211008 19 281 0.0 0.0 0.00 0.00 0.00 57 1011.0